Weather History for Blackwell, OK

Change the Weather History Date:

Wednesday, October 26, 2011

  Actual Average (KPNC) Record (KPNC)
Temperature  
Mean Temperature 56 °F -  
Max Temperature 62 °F 71 °F 92 °F (1950)
Min Temperature 50 °F 48 °F 25 °F (1957)
Degree Days  
Heating Degree Days 9    
Growing Degree Days 6 (Base 50)    
Moisture  
Dew Point 41 °F    
Average Humidity 55    
Maximum Humidity 67    
Minimum Humidity 42    
Precipitation  
Precipitation 0.00 in - - ()
Sea Level Pressure  
Sea Level Pressure 29.95 in    
Wind  
Wind Speed 15 mph (NNE)    
Max Wind Speed 25 mph    
Max Gust Speed 38 mph    
Visibility 10 miles    
Events Rain    
Averages and records for this station are not official NWS values.
T = Trace of Precipitation, MM = Missing Value Source: NWS Daily Summary

Daily Weather History Graph

Daily Weather History Graph

Search for Another Location

Airport:

Trip Planner

Search our weather history database for the weather conditions in past years. The results will help you decide how hot, cold, wet, or windy it might be!

Date:

Astronomy

Oct. 26, 2011 Rise Set
Actual Time 7:46 AM CDT 6:39 PM CDT
Civil Twilight 7:20 AM CDT 7:05 PM CDT
Nautical Twilight 6:50 AM CDT 7:36 PM CDT
Astronomical Twilight 6:20 AM CDT 8:06 PM CDT
Moon 7:34 AM CDT (10/26) 6:24 PM CDT (10/26)
Length of Visible Light 11h 45m
Length of Day
10h 52m
Waning Crescent, 0% of the Moon is Illuminated
Oct 26
Waning Crescent
Oct 26
New
Nov 2
First Quarter
Nov 10
Full
Nov 18
Last Quarter

Hourly Weather History & Observations

Time (CDT) Temp. Dew Point Humidity Pressure Visibility Wind Dir Wind Speed Gust Speed Precip Events Conditions
12:15 AM 62.6 °F 44.6 °F 52% 29.88 in 10.0 mi ENE 11.5 mph - N/A   Clear
12:35 AM 60.8 °F 44.6 °F 55% 29.88 in 10.0 mi NE 11.5 mph - N/A   Clear
12:55 AM 59.0 °F 44.6 °F 59% 29.88 in 10.0 mi NE 12.7 mph - N/A   Partly Cloudy
1:15 AM 59.0 °F 44.6 °F 59% 29.87 in 10.0 mi NE 16.1 mph - N/A   Partly Cloudy
1:35 AM 59.0 °F 44.6 °F 59% 29.86 in 10.0 mi NE 12.7 mph - N/A   Partly Cloudy
1:55 AM 57.2 °F 44.6 °F 63% 29.86 in 10.0 mi NE 13.8 mph - N/A   Clear
2:15 AM 57.2 °F 44.6 °F 63% 29.85 in 10.0 mi NE 13.8 mph - N/A   Clear
2:35 AM 57.2 °F 44.6 °F 63% 29.86 in 10.0 mi NE 13.8 mph 18.4 mph N/A   Clear
2:55 AM 57.2 °F 44.6 °F 63% 29.86 in 10.0 mi NNE 11.5 mph - N/A   Clear
3:15 AM 55.4 °F 42.8 °F 63% 29.86 in 10.0 mi NNE 11.5 mph 18.4 mph N/A   Partly Cloudy
3:35 AM 55.4 °F 42.8 °F 63% 29.87 in 10.0 mi NNE 11.5 mph 17.3 mph N/A   Partly Cloudy
3:55 AM 55.4 °F 42.8 °F 63% 29.87 in 10.0 mi NNE 11.5 mph - N/A   Partly Cloudy
4:15 AM 55.4 °F 42.8 °F 63% 29.87 in 10.0 mi NNE 13.8 mph - N/A   Partly Cloudy
4:35 AM 55.4 °F 42.8 °F 63% 29.87 in 10.0 mi NNE 13.8 mph 18.4 mph N/A   Partly Cloudy
4:55 AM 55.4 °F 41.0 °F 58% 29.88 in 10.0 mi NNE 16.1 mph 20.7 mph N/A   Partly Cloudy
5:15 AM 55.4 °F 41.0 °F 58% 29.88 in 10.0 mi NNE 16.1 mph 20.7 mph N/A   Partly Cloudy
5:35 AM 55.4 °F 41.0 °F 58% 29.90 in 10.0 mi NNE 16.1 mph - N/A   Mostly Cloudy
6:15 AM 55.4 °F 41.0 °F 58% 29.93 in 10.0 mi North 21.9 mph 28.8 mph N/A   Overcast
6:35 AM 53.6 °F 41.0 °F 62% 29.93 in 10.0 mi NNE 19.6 mph 35.7 mph N/A   Overcast
7:15 AM 53.6 °F 41.0 °F 62% 29.93 in 10.0 mi NNE 25.3 mph 33.4 mph N/A   Overcast
7:35 AM 53.6 °F 41.0 °F 62% 29.94 in 10.0 mi NNE 23.0 mph 32.2 mph N/A   Overcast
7:55 AM 53.6 °F 41.0 °F 62% 29.94 in 10.0 mi NNE 19.6 mph 32.2 mph N/A   Overcast
8:15 AM 51.8 °F 41.0 °F 67% 29.97 in 10.0 mi NNE 21.9 mph 33.4 mph N/A   Overcast
8:35 AM 51.8 °F 39.2 °F 62% 29.97 in 10.0 mi NNE 18.4 mph 31.1 mph N/A   Overcast
8:55 AM 51.8 °F 39.2 °F 62% 29.98 in 10.0 mi North 21.9 mph 38.0 mph N/A   Overcast
9:15 AM 53.6 °F 39.2 °F 58% 30.00 in 10.0 mi NNE 21.9 mph 26.5 mph N/A   Overcast
9:35 AM 53.6 °F 39.2 °F 58% 30.00 in 10.0 mi NNE 20.7 mph 26.5 mph N/A Rain Light Rain
9:55 AM 53.6 °F 39.2 °F 58% 29.99 in 10.0 mi NNE 20.7 mph 32.2 mph N/A   Overcast
10:15 AM 53.6 °F 39.2 °F 58% 29.99 in 10.0 mi NNE 19.6 mph 26.5 mph N/A   Overcast
10:35 AM 53.6 °F 39.2 °F 58% 30.00 in 10.0 mi NNE 19.6 mph 27.6 mph N/A   Overcast
10:55 AM 55.4 °F 39.2 °F 54% 30.03 in 10.0 mi North 17.3 mph 24.2 mph N/A   Overcast
11:15 AM 55.4 °F 37.4 °F 51% 30.00 in 10.0 mi NNE 18.4 mph 29.9 mph N/A   Mostly Cloudy
11:35 AM 57.2 °F 39.2 °F 51% 30.02 in 10.0 mi NNE 18.4 mph 28.8 mph N/A   Scattered Clouds
11:55 AM 57.2 °F 39.2 °F 51% 30.01 in 10.0 mi NNE 20.7 mph 27.6 mph N/A   Partly Cloudy
12:15 PM 57.2 °F 39.2 °F 51% 30.01 in 10.0 mi North 20.7 mph 27.6 mph N/A   Clear
12:35 PM 59.0 °F 39.2 °F 48% 30.01 in 10.0 mi North 20.7 mph 25.3 mph N/A   Clear
12:55 PM 59.0 °F 39.2 °F 48% 30.00 in 10.0 mi NNE 15.0 mph 24.2 mph N/A   Clear
1:15 PM 59.0 °F 39.2 °F 48% 30.00 in 10.0 mi NNE 16.1 mph 29.9 mph N/A   Clear
1:35 PM 60.8 °F 39.2 °F 45% 29.99 in 10.0 mi NNE 19.6 mph 26.5 mph N/A   Clear
2:15 PM 62.6 °F 39.2 °F 42% 29.97 in 10.0 mi NNE 18.4 mph 25.3 mph N/A   Clear
2:35 PM 62.6 °F 39.2 °F 42% 29.97 in 10.0 mi NNE 18.4 mph 28.8 mph N/A   Clear
3:15 PM 62.6 °F 39.2 °F 42% 29.96 in 10.0 mi North 17.3 mph 24.2 mph N/A   Clear
3:35 PM 62.6 °F 39.2 °F 42% 29.97 in 10.0 mi NE 13.8 mph 21.9 mph N/A   Clear
3:55 PM 62.6 °F 39.2 °F 42% 29.97 in 10.0 mi North 16.1 mph - N/A   Clear
4:15 PM 62.6 °F 39.2 °F 42% 29.97 in 10.0 mi North 16.1 mph 21.9 mph N/A   Clear
4:35 PM 62.6 °F 39.2 °F 42% 29.97 in 10.0 mi North 15.0 mph - N/A   Clear
4:55 PM 62.6 °F 39.2 °F 42% 29.97 in 10.0 mi North 18.4 mph - N/A   Clear
5:15 PM 62.6 °F 39.2 °F 42% 29.97 in 10.0 mi North 16.1 mph 20.7 mph N/A   Clear
5:35 PM 60.8 °F 39.2 °F 45% 29.98 in 10.0 mi NNE 16.1 mph - N/A   Clear
5:55 PM 59.0 °F 39.2 °F 48% 29.98 in 10.0 mi North 12.7 mph 19.6 mph N/A   Clear
6:15 PM 59.0 °F 39.2 °F 48% 29.98 in 10.0 mi North 16.1 mph - N/A   Clear
6:35 PM 57.2 °F 39.2 °F 51% 29.98 in 10.0 mi NNE 12.7 mph - N/A   Clear
6:55 PM 57.2 °F 39.2 °F 51% 29.98 in 10.0 mi NNE 11.5 mph - N/A   Clear
7:15 PM 55.4 °F 39.2 °F 54% 29.99 in 10.0 mi NNE 11.5 mph 16.1 mph N/A   Partly Cloudy
7:35 PM 55.4 °F 39.2 °F 54% 30.00 in 10.0 mi North 9.2 mph - N/A   Scattered Clouds
7:55 PM 53.6 °F 39.2 °F 58% 30.00 in 10.0 mi North 9.2 mph - N/A   Scattered Clouds
8:15 PM 53.6 °F 39.2 °F 58% 30.02 in 10.0 mi North 8.1 mph - N/A   Mostly Cloudy
8:35 PM 50.0 °F 39.2 °F 66% 30.02 in 10.0 mi North 6.9 mph - N/A   Mostly Cloudy
8:55 PM 50.0 °F 39.2 °F 66% 30.03 in 10.0 mi North 15.0 mph 19.6 mph N/A   Mostly Cloudy
9:15 PM 51.8 °F 39.2 °F 62% 30.04 in 10.0 mi North 18.4 mph 24.2 mph N/A   Partly Cloudy
9:35 PM 51.8 °F 39.2 °F 62% 30.05 in 10.0 mi North 15.0 mph - N/A   Clear
9:55 PM 50.0 °F 37.4 °F 62% 30.07 in 10.0 mi North 17.3 mph 25.3 mph N/A   Clear
10:15 PM 50.0 °F 37.4 °F 62% 30.08 in 10.0 mi North 18.4 mph 23.0 mph N/A   Partly Cloudy
10:35 PM 50.0 °F 37.4 °F 62% 30.08 in 10.0 mi North 10.4 mph - N/A   Scattered Clouds
11:15 PM 48.2 °F 37.4 °F 66% 30.08 in 10.0 mi North 15.0 mph 21.9 mph N/A   Mostly Cloudy
11:35 PM 48.2 °F 37.4 °F 66% 30.08 in 10.0 mi North 16.1 mph 21.9 mph N/A   Mostly Cloudy
11:55 PM 48.2 °F 37.4 °F 66% 30.09 in 10.0 mi North 13.8 mph - N/A   Overcast